| time (UTC) | temp F | wind direction | speed knots | gust knots | rain 1hr in | rain 24hr in | rain mn in | humidity % | barometer mb |
| 20260901155112 | 84 | 231 | 2.6 | 7.0 | 0.00 | 0.04 | 0.00 | 78 | 1012.3 |
| 20260901154602 | 83 | 223 | 2.6 | 7.0 | 0.00 | 0.04 | 0.00 | 77 | 1012.3 |
| 20260901154101 | 83 | 198 | 1.7 | 3.5 | 0.00 | 0.04 | 0.00 | 78 | 1012.2 |
| 20260901154043 | 82 | 204 | 1.7 | 4.3 | 0.00 | 0.04 | 0.00 | 79 | 1012.2 |
| 20260901153050 | 82 | 236 | 2.6 | 7.0 | 0.00 | 0.04 | 0.00 | 80 | 1012.2 |
| 20260901152538 | 82 | 194 | 2.6 | 7.0 | 0.00 | 0.04 | 0.00 | 78 | 1012.1 |
| 20260901152037 | 82 | 171 | 1.7 | 5.2 | 0.00 | 0.04 | 0.00 | 79 | 1012.1 |
| 20260901152021 | 81 | 178 | 2.6 | 7.0 | 0.00 | 0.04 | 0.00 | 81 | 1012.1 |
| 20260901151249 | 81 | 231 | 3.5 | 7.0 | 0.00 | 0.04 | 0.00 | 80 | 1012.0 |
| 20260901150518 | 80 | 248 | 3.5 | 7.0 | 0.00 | 0.04 | 0.00 | 80 | 1012.0 |
| 20260901150014 | 80 | 220 | 2.6 | 6.1 | 0.00 | 0.04 | 0.00 | 82 | 1012.0 |
| 20260901145508 | 80 | 229 | 2.6 | 7.0 | 0.00 | 0.04 | 0.00 | 81 | 1012.0 |
| 20260901145002 | 80 | 223 | 2.6 | 7.0 | 0.00 | 0.04 | 0.00 | 81 | 1012.0 |
| 20260901144450 | 80 | 231 | 2.6 | 6.1 | 0.00 | 0.04 | 0.00 | 81 | 1012.0 |
| 20260901143950 | 80 | 220 | 2.6 | 5.2 | 0.00 | 0.04 | 0.00 | 81 | 1012.0 |
| 20260901143443 | 79 | 223 | 3.5 | 6.1 | 0.00 | 0.04 | 0.00 | 83 | 1012.0 |
| 20260901142936 | 79 | 234 | 2.6 | 7.0 | 0.00 | 0.04 | 0.00 | 82 | 1012.0 |
| 20260901142431 | 78 | 223 | 2.6 | 7.0 | 0.00 | 0.04 | 0.00 | 83 | 1012.0 |
| 20260901141925 | 78 | 202 | 2.6 | 6.1 | 0.00 | 0.04 | 0.00 | 84 | 1012.0 |
| 20260901141511 | 78 | 223 | 2.6 | 7.8 | 0.00 | 0.04 | 0.00 | 84 | 1011.9 |
| 20260901140423 | 77 | 235 | 1.7 | 5.2 | 0.00 | 0.04 | 0.00 | 85 | 1011.9 |
| 20260901140405 | 76 | 215 | 2.6 | 5.2 | 0.00 | 0.04 | 0.00 | 86 | 1012.2 |
| 20260901135423 | 76 | 219 | 3.5 | 7.0 | 0.00 | 0.04 | 0.00 | 86 | 1012.2 |
| 20260901134923 | 76 | 231 | 2.6 | 7.0 | 0.00 | 0.04 | 0.00 | 87 | 1012.2 |
| 20260901134422 | 75 | 236 | 2.6 | 6.1 | 0.00 | 0.04 | 0.00 | 88 | 1012.2 |
| 20260901133926 | 75 | 241 | 2.6 | 6.1 | 0.00 | 0.04 | 0.00 | 89 | 1012.2 |
| 20260901133425 | 74 | 217 | 1.7 | 4.3 | 0.00 | 0.04 | 0.00 | 89 | 1012.2 |
| 20260901132920 | 74 | 186 | 1.7 | 4.3 | 0.00 | 0.04 | 0.00 | 89 | 1012.4 |
| 20260901132404 | 74 | 229 | 1.7 | 3.5 | 0.00 | 0.04 | 0.00 | 89 | 1012.4 |
| 20260901131852 | 74 | 223 | 1.7 | 3.5 | 0.00 | 0.04 | 0.00 | 89 | 1012.4 |
| 20260901131347 | 74 | 227 | 2.6 | 6.1 | 0.00 | 0.04 | 0.00 | 89 | 1012.4 |
| 20260901131106 | 74 | 220 | 2.6 | 6.1 | 0.00 | 0.04 | 0.00 | 89 | 1012.4 |
| 20260901130330 | 74 | 233 | 2.6 | 5.2 | 0.00 | 0.04 | 0.00 | 89 | 1012.4 |
| 20260901125829 | 74 | 223 | 1.7 | 5.2 | 0.00 | 0.04 | 0.00 | 89 | 1012.3 |
| 20260901125543 | 74 | 235 | 2.6 | 4.3 | 0.00 | 0.04 | 0.00 | 89 | 1012.3 |
| 20260901124818 | 74 | 194 | 2.6 | 5.2 | 0.00 | 0.04 | 0.00 | 89 | 1012.3 |
| 20260901124537 | 74 | 221 | 2.6 | 6.1 | 0.00 | 0.04 | 0.00 | 89 | 1012.2 |
| 20260901123805 | 73 | 247 | 2.6 | 6.1 | 0.00 | 0.04 | 0.00 | 90 | 1012.2 |
| 20260901123300 | 73 | 197 | 2.6 | 6.1 | 0.00 | 0.04 | 0.00 | 90 | 1012.2 |
| 20260901122748 | 73 | 227 | 2.6 | 5.2 | 0.00 | 0.04 | 0.00 | 90 | 1011.9 |
| 20260901122246 | 73 | 279 | 1.7 | 3.5 | 0.00 | 0.04 | 0.00 | 90 | 1011.9 |
| 20260901121740 | 73 | 180 | 0.9 | 3.5 | 0.00 | 0.04 | 0.00 | 90 | 1011.9 |
| 20260901121234 | 73 | 186 | 1.7 | 5.2 | 0.00 | 0.04 | 0.00 | 90 | 1011.9 |
| 20260901120728 | 73 | 219 | 1.7 | 5.2 | 0.00 | 0.04 | 0.00 | 90 | 1011.9 |
| 20260901120218 | 73 | 215 | 1.7 | 4.3 | 0.00 | 0.04 | 0.00 | 90 | 1011.9 |
| 20260901115716 | 73 | 225 | 1.7 | 4.3 | 0.00 | 0.04 | 0.00 | 91 | 1011.6 |
| 20260901115212 | 73 | 221 | 1.7 | 5.2 | 0.00 | 0.04 | 0.00 | 91 | 1011.6 |
| 20260901114930 | 73 | 216 | 1.7 | 5.2 | 0.00 | 0.04 | 0.00 | 91 | 1011.6 |
| 20260901114159 | 73 | 185 | 1.7 | 3.5 | 0.00 | 0.04 | 0.00 | 91 | 1011.6 |
| 20260901113652 | 73 | 163 | 1.7 | 4.3 | 0.00 | 0.04 | 0.00 | 91 | 1011.6 |
| 20260901113147 | 73 | 167 | 1.7 | 4.3 | 0.00 | 0.04 | 0.00 | 91 | 1011.6 |
| 20260901112635 | 73 | 208 | 1.7 | 3.5 | 0.00 | 0.04 | 0.00 | 91 | 1011.4 |
| 20260901112134 | 73 | 220 | 0.9 | 3.5 | 0.00 | 0.04 | 0.00 | 91 | 1011.4 |
| 20260901111629 | 73 | 211 | 0.9 | 3.5 | 0.00 | 0.04 | 0.00 | 91 | 1011.4 |
| 20260901111123 | 73 | 216 | 0.9 | 3.5 | 0.00 | 0.04 | 0.00 | 91 | 1011.3 |
| 20260901110617 | 73 | 181 | 0.9 | 4.3 | 0.00 | 0.04 | 0.00 | 91 | 1011.3 |
| 20260901110330 | 73 | 186 | 0.9 | 4.3 | 0.00 | 0.04 | 0.00 | 91 | 1011.3 |
| 20260901105604 | 73 | 220 | 0.9 | 2.6 | 0.00 | 0.04 | 0.00 | 91 | 1011.4 |
| 20260901105100 | 73 | 209 | 1.7 | 3.5 | 0.00 | 0.04 | 0.00 | 90 | 1011.4 |
| 20260901104552 | 73 | 213 | 1.7 | 3.5 | 0.00 | 0.04 | 0.00 | 90 | 1011.4 |
| 20260901104047 | 73 | 197 | 1.7 | 4.3 | 0.00 | 0.04 | 0.00 | 90 | 1010.8 |
| 20260901103537 | 74 | 202 | 1.7 | 4.3 | 0.00 | 0.04 | 0.00 | 89 | 1010.8 |
| 20260901103036 | 74 | 90 | 0.9 | 2.6 | 0.00 | 0.04 | 0.00 | 89 | 1010.8 |
| 20260901102528 | 74 | 194 | 0.9 | 3.5 | 0.00 | 0.04 | 0.00 | 88 | 1011.5 |
| 20260901102112 | 74 | 233 | 0.9 | 3.5 | 0.00 | 0.04 | 0.00 | 88 | 1011.5 |
| 20260901101020 | 74 | 231 | 0.9 | 3.5 | 0.00 | 0.04 | 0.00 | 88 | 1011.4 |
| 20260901100521 | 74 | 255 | 0.9 | 3.5 | 0.00 | 0.04 | 0.00 | 88 | 1011.4 |
| 20260901100019 | 74 | 221 | 0.0 | 1.7 | 0.00 | 0.04 | 0.00 | 88 | 1011.4 |
| 20260901095517 | 74 | 218 | 0.9 | 2.6 | 0.00 | 0.04 | 0.00 | 88 | 1011.2 |
| 20260901095018 | 74 | 218 | 0.9 | 2.6 | 0.00 | 0.04 | 0.00 | 88 | 1011.2 |
| 20260901094518 | 74 | 227 | 0.9 | 2.6 | 0.00 | 0.04 | 0.00 | 88 | 1011.2 |
| 20260901094018 | 74 | 227 | 0.9 | 5.2 | 0.00 | 0.04 | 0.00 | 88 | 1010.9 |
| 20260901093739 | 74 | 212 | 1.7 | 5.2 | 0.00 | 0.04 | 0.00 | 88 | 1010.9 |
| 20260901093019 | 74 | 222 | 0.9 | 3.5 | 0.00 | 0.04 | 0.00 | 88 | 1010.9 |
| 20260901092512 | 74 | 227 | 0.9 | 3.5 | 0.00 | 0.04 | 0.00 | 88 | 1010.9 |
| 20260901092000 | 74 | 216 | 0.9 | 2.6 | 0.00 | 0.04 | 0.00 | 88 | 1010.9 |
| 20260901091447 | 74 | 201 | 0.9 | 2.6 | 0.00 | 0.04 | 0.00 | 88 | 1010.9 |
| 20260901090938 | 74 | 218 | 0.9 | 2.6 | 0.00 | 0.04 | 0.00 | 87 | 1010.9 |
| 20260901090433 | 74 | 184 | 0.9 | 2.6 | 0.00 | 0.04 | 0.00 | 87 | 1010.9 |
| 20260901085926 | 75 | 190 | 0.9 | 2.6 | 0.00 | 0.04 | 0.00 | 87 | 1011.1 |
| 20260901085417 | 75 | 194 | 0.9 | 4.3 | 0.00 | 0.04 | 0.00 | 87 | 1011.1 |
| 20260901084913 | 75 | 244 | 1.7 | 4.3 | 0.00 | 0.04 | 0.00 | 86 | 1011.1 |
| 20260901084407 | 75 | 232 | 2.6 | 6.1 | 0.00 | 0.04 | 0.00 | 86 | 1010.9 |
| 20260901083902 | 75 | 213 | 3.5 | 6.1 | 0.00 | 0.04 | 0.00 | 85 | 1010.9 |
| 20260901083356 | 75 | 217 | 3.5 | 6.1 | 0.00 | 0.04 | 0.00 | 85 | 1010.9 |
| 20260901082850 | 75 | 188 | 3.5 | 6.1 | 0.00 | 0.04 | 0.00 | 84 | 1010.9 |
| 20260901082344 | 75 | 207 | 3.5 | 6.1 | 0.00 | 0.04 | 0.00 | 85 | 1010.9 |
| 20260901081832 | 75 | 217 | 2.6 | 6.1 | 0.00 | 0.04 | 0.00 | 85 | 1010.9 |
| 20260901081330 | 75 | 227 | 2.6 | 5.2 | 0.00 | 0.04 | 0.00 | 85 | 1010.8 |
| 20260901080824 | 75 | 221 | 2.6 | 6.1 | 0.00 | 0.04 | 0.00 | 85 | 1010.8 |
| 20260901080314 | 75 | 186 | 2.6 | 6.1 | 0.00 | 0.04 | 0.00 | 85 | 1010.8 |
| 20260901080036 | 75 | 222 | 2.6 | 7.0 | 0.00 | 0.04 | 0.00 | 85 | 1010.8 |
| 20260901075307 | 75 | 221 | 2.6 | 7.0 | 0.00 | 0.04 | 0.00 | 85 | 1010.8 |
| 20260901074759 | 75 | 232 | 3.5 | 5.2 | 0.00 | 0.04 | 0.00 | 85 | 1010.8 |
| 20260901074255 | 75 | 223 | 2.6 | 5.2 | 0.00 | 0.04 | 0.00 | 85 | 1010.8 |
| 20260901073744 | 75 | 215 | 2.6 | 5.2 | 0.00 | 0.04 | 0.00 | 85 | 1010.8 |
| 20260901073238 | 75 | 226 | 2.6 | 5.2 | 0.00 | 0.04 | 0.00 | 85 | 1010.8 |
| 20260901072732 | 75 | 210 | 2.6 | 5.2 | 0.00 | 0.04 | 0.00 | 85 | 1010.8 |
| 20260901072231 | 75 | 232 | 2.6 | 5.2 | 0.00 | 0.04 | 0.00 | 85 | 1010.8 |
| 20260901071723 | 75 | 215 | 2.6 | 5.2 | 0.00 | 0.04 | 0.00 | 85 | 1010.8 |
| 20260901071218 | 75 | 213 | 3.5 | 7.0 | 0.00 | 0.04 | 0.00 | 85 | 1010.7 |
| 20260901070712 | 75 | 229 | 3.5 | 7.0 | 0.00 | 0.04 | 0.00 | 85 | 1010.7 |
| 20260901070201 | 75 | 236 | 2.6 | 5.2 | 0.00 | 0.04 | 0.00 | 85 | 1010.7 |
| 20260901065701 | 75 | 224 | 3.5 | 6.1 | 0.00 | 0.04 | 0.00 | 85 | 1010.7 |
| 20260901065238 | 75 | 229 | 3.5 | 6.1 | 0.00 | 0.04 | 0.00 | 85 | 1010.7 |
| 20260901064141 | 76 | 239 | 3.5 | 6.1 | 0.00 | 0.04 | 0.00 | 85 | 1010.4 |
| 20260901063631 | 76 | 248 | 3.5 | 6.1 | 0.00 | 0.04 | 0.00 | 84 | 1010.4 |
| 20260901063129 | 76 | 234 | 3.5 | 6.1 | 0.00 | 0.04 | 0.00 | 84 | 1010.4 |
| 20260901062622 | 76 | 216 | 3.5 | 7.0 | 0.00 | 0.04 | 0.00 | 84 | 1010.7 |
| 20260901062116 | 76 | 213 | 3.5 | 6.1 | 0.00 | 0.04 | 0.00 | 84 | 1010.7 |
| 20260901061610 | 76 | 216 | 3.5 | 6.1 | 0.00 | 0.04 | 0.00 | 84 | 1010.7 |
| 20260901061059 | 76 | 250 | 2.6 | 6.1 | 0.00 | 0.04 | 0.00 | 84 | 1010.7 |
| 20260901060906 | 76 | 228 | 2.6 | 5.2 | 0.00 | 0.04 | 0.00 | 84 | 1010.7 |
| 20260901055543 | 76 | 221 | 1.7 | 4.3 | 0.00 | 0.04 | 0.00 | 84 | 1010.8 |
| 20260901055043 | 76 | 220 | 1.7 | 6.1 | 0.00 | 0.04 | 0.00 | 84 | 1010.8 |
| 20260901054802 | 76 | 224 | 2.6 | 6.1 | 0.00 | 0.04 | 0.00 | 84 | 1010.8 |
| 20260901054042 | 76 | 223 | 2.6 | 5.2 | 0.00 | 0.04 | 0.00 | 84 | 1010.8 |
| 20260901053543 | 76 | 202 | 2.6 | 5.2 | 0.00 | 0.04 | 0.00 | 84 | 1010.8 |
| 20260901053043 | 77 | 221 | 2.6 | 4.3 | 0.00 | 0.04 | 0.00 | 84 | 1010.8 |
| 20260901052542 | 77 | 203 | 2.6 | 4.3 | 0.00 | 0.04 | 0.00 | 84 | 1010.8 |
| 20260901052042 | 77 | 223 | 2.6 | 5.2 | 0.00 | 0.04 | 0.00 | 84 | 1010.8 |
| 20260901051801 | 77 | 215 | 3.5 | 6.1 | 0.00 | 0.04 | 0.00 | 83 | 1010.8 |
| 20260901051037 | 77 | 209 | 3.5 | 6.1 | 0.00 | 0.04 | 0.00 | 83 | 1010.8 |
| 20260901050747 | 77 | 197 | 3.5 | 6.1 | 0.00 | 0.04 | 0.00 | 83 | 1010.8 |
| 20260901050017 | 77 | 218 | 2.6 | 6.1 | 0.00 | 0.04 | 0.00 | 83 | 1010.8 |
| 20260901045508 | 77 | 222 | 2.6 | 6.1 | 0.00 | 0.04 | 0.04 | 83 | 1010.8 |
| 20260901045001 | 78 | 232 | 3.5 | 7.0 | 0.00 | 0.04 | 0.04 | 83 | 1010.8 |
| 20260901044456 | 78 | 203 | 3.5 | 7.0 | 0.00 | 0.04 | 0.04 | 82 | 1010.8 |
| 20260901043956 | 78 | 238 | 3.5 | 7.0 | 0.00 | 0.04 | 0.04 | 82 | 1010.8 |
| 20260901043456 | 78 | 225 | 3.5 | 7.0 | 0.00 | 0.04 | 0.04 | 82 | 1010.8 |
| 20260901042956 | 78 | 215 | 3.5 | 7.0 | 0.00 | 0.04 | 0.04 | 82 | 1010.8 |
| 20260901042456 | 78 | 223 | 3.5 | 7.0 | 0.00 | 0.04 | 0.04 | 82 | 1010.8 |
| 20260901041958 | 78 | 228 | 3.5 | 6.1 | 0.00 | 0.04 | 0.04 | 81 | 1010.8 |
| 20260901041456 | 78 | 224 | 3.5 | 7.8 | 0.00 | 0.04 | 0.04 | 81 | 1010.8 |
| 20260901040959 | 79 | 211 | 2.6 | 7.8 | 0.00 | 0.04 | 0.04 | 81 | 1010.8 |
| 20260901040459 | 79 | 236 | 2.6 | 6.1 | 0.00 | 0.04 | 0.04 | 81 | 1010.8 |
| 20260901035953 | 79 | 207 | 2.6 | 7.0 | 0.00 | 0.04 | 0.04 | 81 | 1010.7 |
| 20260901035442 | 79 | 209 | 2.6 | 7.0 | 0.00 | 0.04 | 0.04 | 81 | 1010.7 |
| 20260901034930 | 79 | 228 | 2.6 | 5.2 | 0.00 | 0.04 | 0.04 | 81 | 1010.7 |
| 20260901034418 | 79 | 224 | 2.6 | 5.2 | 0.00 | 0.04 | 0.04 | 81 | 1010.7 |
| 20260901033919 | 79 | 218 | 2.6 | 7.0 | 0.00 | 0.04 | 0.04 | 81 | 1010.7 |
| 20260901033409 | 79 | 205 | 2.6 | 7.0 | 0.00 | 0.04 | 0.04 | 81 | 1010.7 |
| 20260901032903 | 79 | 230 | 2.6 | 5.2 | 0.00 | 0.04 | 0.04 | 81 | 1010.7 |
| 20260901032357 | 79 | 229 | 2.6 | 6.1 | 0.00 | 0.04 | 0.04 | 81 | 1010.7 |
| 20260901031846 | 79 | 244 | 2.6 | 7.0 | 0.00 | 0.04 | 0.04 | 81 | 1010.7 |
| 20260901031345 | 79 | 220 | 2.6 | 7.0 | 0.00 | 0.04 | 0.04 | 81 | 1010.8 |
| 20260901030840 | 79 | 192 | 2.6 | 7.0 | 0.00 | 0.04 | 0.04 | 81 | 1010.8 |
| 20260901030333 | 80 | 184 | 2.6 | 5.2 | 0.00 | 0.04 | 0.04 | 81 | 1010.8 |
| 20260901025827 | 80 | 149 | 1.7 | 5.2 | 0.00 | 0.04 | 0.04 | 81 | 1011.0 |
| 20260901025321 | 80 | 212 | 2.6 | 5.2 | 0.00 | 0.04 | 0.04 | 81 | 1011.0 |
| 20260901024815 | 79 | 185 | 2.6 | 5.2 | 0.00 | 0.04 | 0.04 | 81 | 1011.0 |
| 20260901024304 | 79 | 180 | 1.7 | 5.2 | 0.00 | 0.04 | 0.04 | 81 | 1010.9 |
| 20260901023803 | 79 | 191 | 1.7 | 5.2 | 0.00 | 0.04 | 0.04 | 82 | 1010.9 |
| 20260901023258 | 79 | 191 | 1.7 | 4.3 | 0.00 | 0.04 | 0.04 | 82 | 1010.9 |
| 20260901022753 | 79 | 238 | 1.7 | 5.2 | 0.00 | 0.04 | 0.04 | 82 | 1010.9 |
| 20260901022246 | 79 | 213 | 1.7 | 5.2 | 0.00 | 0.04 | 0.04 | 82 | 1010.9 |
| 20260901021736 | 80 | 230 | 2.6 | 6.1 | 0.00 | 0.04 | 0.04 | 81 | 1010.9 |
| 20260901021458 | 80 | 244 | 2.6 | 6.1 | 0.00 | 0.04 | 0.04 | 81 | 1010.9 |
| 20260901020950 | 80 | 230 | 2.6 | 6.1 | 0.00 | 0.04 | 0.04 | 81 | 1010.9 |
| 20260901020221 | 80 | 208 | 2.6 | 6.1 | 0.00 | 0.04 | 0.04 | 80 | 1010.9 |
| 20260901015715 | 80 | 207 | 2.6 | 6.1 | 0.00 | 0.04 | 0.04 | 80 | 1010.8 |
| 20260901015209 | 81 | 169 | 2.6 | 8.7 | 0.00 | 0.04 | 0.04 | 79 | 1010.8 |
| 20260901014705 | 81 | 218 | 2.6 | 8.7 | 0.00 | 0.04 | 0.04 | 79 | 1010.8 |
| 20260901014154 | 81 | 187 | 2.6 | 6.1 | 0.00 | 0.04 | 0.04 | 79 | 1010.5 |
| 20260901013651 | 81 | 212 | 2.6 | 6.1 | 0.00 | 0.04 | 0.04 | 78 | 1010.5 |
| 20260901013147 | 81 | 246 | 2.6 | 7.8 | 0.00 | 0.04 | 0.04 | 78 | 1010.5 |
| 20260901012639 | 81 | 227 | 2.6 | 7.8 | 0.00 | 0.04 | 0.04 | 79 | 1010.5 |
| 20260901012134 | 81 | 213 | 2.6 | 7.0 | 0.00 | 0.04 | 0.04 | 80 | 1010.5 |
| 20260901011845 | 81 | 241 | 2.6 | 7.0 | 0.00 | 0.04 | 0.04 | 80 | 1010.5 |
| 20260901011120 | 81 | 188 | 2.6 | 5.2 | 0.01 | 0.04 | 0.04 | 81 | 1010.2 |
| 20260901010834 | 80 | 250 | 2.6 | 7.0 | 0.04 | 0.04 | 0.04 | 81 | 1010.2 |
| 20260901010108 | 80 | 234 | 2.6 | 7.8 | 0.04 | 0.04 | 0.04 | 82 | 1010.2 |
| 20260901005603 | 80 | 244 | 3.5 | 7.8 | 0.04 | 0.04 | 0.04 | 82 | 1010.0 |
| 20260901005056 | 80 | 222 | 2.6 | 9.6 | 0.04 | 0.04 | 0.04 | 83 | 1010.0 |
| 20260901004551 | 80 | 213 | 1.7 | 8.7 | 0.04 | 0.04 | 0.04 | 85 | 1010.0 |
| 20260901004039 | 79 | 160 | 1.7 | 6.1 | 0.04 | 0.04 | 0.04 | 86 | 1010.0 |
| 20260901003536 | 79 | 184 | 1.7 | 6.1 | 0.04 | 0.04 | 0.04 | 86 | 1010.0 |
| 20260901003032 | 79 | 141 | 2.6 | 7.8 | 0.04 | 0.04 | 0.04 | 86 | 1010.0 |
| 20260901002755 | 79 | 221 | 2.6 | 7.8 | 0.04 | 0.04 | 0.04 | 86 | 1009.7 |
| 20260901002032 | 79 | 213 | 2.6 | 7.8 | 0.04 | 0.04 | 0.04 | 85 | 1009.7 |
| 20260901001531 | 80 | 234 | 3.5 | 8.7 | 0.04 | 0.04 | 0.04 | 84 | 1009.7 |
| 20260901001031 | 81 | 140 | 4.3 | 15.6 | 0.03 | 0.03 | 0.03 | 81 | 1012.3 |
| 20260901000532 | 83 | 273 | 1.7 | 15.6 | 0.00 | 0.00 | 0.00 | 79 | 1012.3 |
| 20260901000031 | 84 | 238 | 0.0 | 2.6 | 0.00 | 0.00 | 0.00 | 79 | 1012.3 |
| 20260831235748 | 84 | 263 | 0.0 | 2.6 | 0.00 | 0.00 | 0.00 | 78 | 1010.9 |
| 20260831235250 | 85 | 231 | 0.0 | 1.7 | 0.00 | 0.00 | 0.00 | 77 | 1010.9 |
| 20260831234526 | 87 | 184 | 0.0 | 0.9 | 0.00 | 0.00 | 0.00 | 75 | 1010.9 |
| 20260831234014 | 87 | 159 | 0.0 | 0.9 | 0.00 | 0.00 | 0.00 | 73 | 1010.5 |
| 20260831233504 | 87 | 214 | 0.0 | 2.6 | 0.00 | 0.00 | 0.00 | 72 | 1010.5 |
| 20260831232959 | 87 | 146 | 0.9 | 3.5 | 0.00 | 0.00 | 0.00 | 72 | 1010.5 |
| 20260831232713 | 88 | 198 | 0.9 | 3.5 | 0.00 | 0.00 | 0.00 | 72 | 1010.4 |
| 20260831231945 | 88 | 217 | 0.9 | 4.3 | 0.00 | 0.00 | 0.00 | 72 | 1010.4 |
| 20260831231441 | 88 | 216 | 0.0 | 3.5 | 0.00 | 0.00 | 0.00 | 72 | 1010.7 |
| 20260831230933 | 88 | 215 | 0.0 | 0.0 | 0.00 | 0.00 | 0.00 | 72 | 1010.7 |
| 20260831230652 | 88 | 185 | 0.9 | 4.3 | 0.00 | 0.00 | 0.00 | 72 | 1010.7 |
| 20260831225918 | 88 | 213 | 1.7 | 4.3 | 0.00 | 0.00 | 0.00 | 72 | 1010.4 |
| 20260831225417 | 89 | 236 | 2.6 | 5.2 | 0.00 | 0.00 | 0.00 | 71 | 1010.4 |
| 20260831225135 | 89 | 227 | 2.6 | 6.1 | 0.00 | 0.00 | 0.00 | 70 | 1010.4 |
| 20260831224622 | 89 | 234 | 2.6 | 6.1 | 0.00 | 0.00 | 0.00 | 69 | 1010.1 |
| 20260831224117 | 90 | 221 | 2.6 | 7.8 | 0.00 | 0.00 | 0.00 | 68 | 1010.1 |
| 20260831223346 | 90 | 193 | 3.5 | 7.8 | 0.00 | 0.00 | 0.00 | 68 | 1010.1 |
| 20260831222845 | 90 | 198 | 3.5 | 7.8 | 0.00 | 0.00 | 0.00 | 68 | 1009.9 |
| 20260831222605 | 91 | 227 | 3.5 | 7.8 | 0.00 | 0.00 | 0.00 | 67 | 1009.9 |
| 20260831221833 | 90 | 221 | 4.3 | 9.6 | 0.00 | 0.00 | 0.00 | 67 | 1009.9 |
| 20260831221327 | 91 | 229 | 4.3 | 9.6 | 0.00 | 0.00 | 0.00 | 66 | 1009.7 |
| 20260831220817 | 91 | 173 | 3.5 | 10.4 | 0.00 | 0.00 | 0.00 | 66 | 1009.7 |
| 20260831220315 | 91 | 221 | 4.3 | 10.4 | 0.00 | 0.00 | 0.00 | 66 | 1009.7 |
| 20260831215805 | 91 | 217 | 5.2 | 9.6 | 0.00 | 0.00 | 0.00 | 65 | 1010.2 |
| 20260831215306 | 91 | 239 | 5.2 | 11.3 | 0.00 | 0.00 | 0.00 | 65 | 1010.2 |
| 20260831214758 | 91 | 242 | 6.1 | 13.9 | 0.00 | 0.00 | 0.00 | 64 | 1010.2 |
| 20260831214252 | 91 | 234 | 5.2 | 13.9 | 0.00 | 0.00 | 0.00 | 62 | 1010.0 |
| 20260831213747 | 91 | 227 | 5.2 | 11.3 | 0.00 | 0.00 | 0.00 | 63 | 1010.0 |
| 20260831213453 | 91 | 238 | 5.2 | 12.2 | 0.00 | 0.00 | 0.00 | 62 | 1010.0 |
| 20260831212734 | 91 | 225 | 5.2 | 12.2 | 0.00 | 0.00 | 0.00 | 62 | 1010.1 |
| 20260831212223 | 91 | 207 | 4.3 | 9.6 | 0.00 | 0.00 | 0.00 | 64 | 1010.1 |
| 20260831211717 | 91 | 217 | 4.3 | 8.7 | 0.00 | 0.00 | 0.00 | 65 | 1010.1 |
| 20260831211211 | 90 | 209 | 4.3 | 10.4 | 0.00 | 0.00 | 0.00 | 65 | 1010.2 |
| 20260831210705 | 90 | 227 | 3.5 | 10.4 | 0.00 | 0.00 | 0.00 | 66 | 1010.2 |
| 20260831210154 | 90 | 169 | 3.5 | 8.7 | 0.00 | 0.00 | 0.00 | 66 | 1010.2 |
| 20260831205653 | 90 | 234 | 3.5 | 8.7 | 0.00 | 0.00 | 0.00 | 66 | 1010.2 |
| 20260831205408 | 90 | 207 | 5.2 | 9.6 | 0.00 | 0.00 | 0.00 | 65 | 1010.2 |
| 20260831204859 | 90 | 251 | 6.1 | 12.2 | 0.00 | 0.00 | 0.00 | 65 | 1010.2 |
| 20260831204135 | 91 | 198 | 5.2 | 13.0 | 0.00 | 0.00 | 0.00 | 63 | 1009.7 |
| 20260831203629 | 91 | 248 | 5.2 | 13.0 | 0.00 | 0.00 | 0.00 | 63 | 1009.7 |
| 20260831203123 | 91 | 211 | 5.2 | 12.2 | 0.00 | 0.00 | 0.00 | 63 | 1009.7 |
| 20260831202615 | 91 | 169 | 4.3 | 11.3 | 0.00 | 0.00 | 0.00 | 63 | 1009.7 |
| 20260831202107 | 91 | 177 | 4.3 | 12.2 | 0.00 | 0.00 | 0.00 | 63 | 1009.7 |
| 20260831201555 | 91 | 212 | 4.3 | 12.2 | 0.00 | 0.00 | 0.00 | 64 | 1009.7 |
| 20260831201042 | 91 | 194 | 3.5 | 9.6 | 0.00 | 0.00 | 0.00 | 64 | 1009.9 |
| 20260831200541 | 91 | 207 | 3.5 | 11.3 | 0.00 | 0.00 | 0.00 | 64 | 1009.9 |
| 20260831200041 | 91 | 197 | 4.3 | 11.3 | 0.00 | 0.00 | 0.00 | 63 | 1009.9 |
| 20260831195543 | 91 | 189 | 4.3 | 11.3 | 0.00 | 0.00 | 0.00 | 63 | 1010.1 |
| 20260831195039 | 90 | 184 | 5.2 | 12.2 | 0.00 | 0.00 | 0.00 | 63 | 1010.1 |
| 20260831194541 | 90 | 208 | 6.1 | 12.2 | 0.00 | 0.00 | 0.00 | 64 | 1010.1 |
| 20260831194038 | 90 | 220 | 5.2 | 11.3 | 0.00 | 0.00 | 0.00 | 62 | 1010.2 |
| 20260831193538 | 90 | 198 | 5.2 | 13.0 | 0.00 | 0.00 | 0.00 | 64 | 1010.2 |
| 20260831193038 | 90 | 233 | 6.1 | 15.6 | 0.00 | 0.00 | 0.00 | 63 | 1010.2 |
| 20260831192538 | 90 | 223 | 5.2 | 15.6 | 0.00 | 0.00 | 0.00 | 62 | 1010.2 |
| 20260831192036 | 90 | 246 | 3.5 | 12.2 | 0.00 | 0.00 | 0.00 | 62 | 1010.2 |
| 20260831191530 | 90 | 182 | 4.3 | 9.6 | 0.00 | 0.00 | 0.00 | 64 | 1010.2 |
| 20260831191506 | 90 | 221 | 4.3 | 12.2 | 0.00 | 0.00 | 0.00 | 62 | 1010.2 |
| 20260831190743 | 90 | 200 | 3.5 | 12.2 | 0.00 | 0.00 | 0.00 | 62 | 1010.2 |
| 20260831190013 | 89 | 223 | 4.3 | 12.2 | 0.00 | 0.00 | 0.00 | 61 | 1010.2 |
| 20260831185502 | 89 | 227 | 4.3 | 12.2 | 0.00 | 0.00 | 0.00 | 60 | 1010.3 |
| 20260831185000 | 89 | 265 | 4.3 | 8.7 | 0.00 | 0.00 | 0.00 | 61 | 1010.3 |
| 20260831184456 | 89 | 286 | 4.3 | 8.7 | 0.00 | 0.00 | 0.00 | 61 | 1010.3 |
| 20260831183949 | 88 | 197 | 3.5 | 8.7 | 0.00 | 0.00 | 0.00 | 62 | 1010.4 |
| 20260831183439 | 88 | 154 | 4.3 | 12.2 | 0.00 | 0.00 | 0.00 | 63 | 1010.4 |
| 20260831182934 | 88 | 239 | 4.3 | 12.2 | 0.00 | 0.00 | 0.00 | 63 | 1010.8 |
| 20260831182430 | 87 | 169 | 4.3 | 8.7 | 0.00 | 0.00 | 0.00 | 64 | 1010.8 |
| 20260831181925 | 87 | 171 | 4.3 | 9.6 | 0.00 | 0.00 | 0.00 | 64 | 1010.8 |
| 20260831181418 | 86 | 221 | 4.3 | 10.4 | 0.00 | 0.00 | 0.00 | 63 | 1010.9 |
| 20260831180912 | 86 | 213 | 4.3 | 10.4 | 0.00 | 0.00 | 0.00 | 64 | 1010.9 |
| 20260831180401 | 86 | 214 | 4.3 | 11.3 | 0.00 | 0.00 | 0.00 | 65 | 1010.9 |
| 20260831175900 | 86 | 128 | 4.3 | 11.3 | 0.00 | 0.00 | 0.00 | 63 | 1011.2 |
| 20260831175356 | 86 | 210 | 3.5 | 10.4 | 0.00 | 0.00 | 0.00 | 65 | 1011.2 |
| 20260831175112 | 85 | 186 | 4.3 | 11.3 | 0.00 | 0.00 | 0.00 | 65 | 1011.2 |
| 20260831174337 | 85 | 181 | 4.3 | 11.3 | 0.00 | 0.00 | 0.00 | 65 | 1011.5 |
| 20260831174326 | 85 | 177 | 3.5 | 10.4 | 0.00 | 0.00 | 0.00 | 66 | 1011.5 |
| 20260831173331 | 84 | 232 | 3.5 | 10.4 | 0.00 | 0.00 | 0.00 | 67 | 1011.5 |
| 20260831172821 | 83 | 229 | 2.6 | 10.4 | 0.00 | 0.00 | 0.00 | 70 | 1011.9 |
| 20260831172320 | 82 | 184 | 2.6 | 7.0 | 0.00 | 0.00 | 0.00 | 72 | 1011.9 |
| 20260831171813 | 81 | 203 | 2.6 | 7.8 | 0.00 | 0.00 | 0.00 | 73 | 1011.9 |
| 20260831171527 | 81 | 131 | 1.7 | 7.8 | 0.00 | 0.00 | 0.00 | 74 | 1012.0 |
| 20260831170801 | 80 | 232 | 1.7 | 7.0 | 0.00 | 0.00 | 0.00 | 75 | 1012.0 |
| 20260831170258 | 79 | 161 | 2.6 | 7.0 | 0.00 | 0.00 | 0.00 | 75 | 1012.0 |
| 20260831165758 | 79 | 173 | 1.7 | 7.0 | 0.00 | 0.00 | 0.00 | 76 | 1012.3 |
| 20260831165256 | 78 | 188 | 1.7 | 6.1 | 0.00 | 0.00 | 0.00 | 78 | 1012.3 |
| 20260831165012 | 77 | 123 | 0.9 | 2.6 | 0.00 | 0.00 | 0.00 | 80 | 1012.3 |
| 20260831164738 | 77 | 116 | 0.9 | 2.6 | 0.00 | 0.00 | 0.00 | 80 | 1012.5 |
| 20260831163754 | 76 | 117 | 0.9 | 2.6 | 0.00 | 0.00 | 0.00 | 80 | 1012.5 |
| 20260831163253 | 76 | 109 | 0.9 | 2.6 | 0.00 | 0.00 | 0.00 | 80 | 1012.5 |
| 20260831162751 | 76 | 98 | 0.9 | 2.6 | 0.00 | 0.00 | 0.00 | 80 | 1012.6 |
| 20260831162253 | 76 | 107 | 0.9 | 2.6 | 0.00 | 0.00 | 0.00 | 80 | 1012.6 |
| 20260831161752 | 76 | 108 | 0.9 | 2.6 | 0.00 | 0.00 | 0.00 | 79 | 1012.6 |
| 20260831161252 | 76 | 132 | 0.9 | 5.2 | 0.00 | 0.00 | 0.00 | 78 | 1012.8 |
| 20260831160751 | 76 | 164 | 0.9 | 5.2 | 0.00 | 0.00 | 0.00 | 79 | 1012.8 |
| 20260831160250 | 76 | 170 | 1.7 | 2.6 | 0.00 | 0.00 | 0.00 | 79 | 1012.8 |
| 20260831155753 | 76 | 158 | 1.7 | 3.5 | 0.00 | 0.00 | 0.00 | 78 | 1012.7 |
| 20260831155254 | 75 | 174 | 1.7 | 3.5 | 0.00 | 0.00 | 0.00 | 78 | 1012.7 |